Location: ČR
(50.0000°N, 15.0000°E)
Time: 16:19:45
(UTC+01:00)

Courier 1B - Pass Details

Date: 10 February 2026
Orbit: 962 x 1208 km, 28.3° (Epoch: 16 March)

Event Time Altitude Azimuth Distance (km) Brightness Sun altitude
Rises 23:19:46 0° 220° (SW) 4,098 - -52.4°
Reaches altitude 10° 23:24:47 10° 193° (SSW) 3,137 - -52.7°
Maximum altitude 23:27:39 12° 171° (S) 2,953 - -52.9°
Drops below altitude 10° 23:30:31 10° 149° (SSE) 3,118 - -53.0°
Sets 23:35:28 0° 122° (ESE) 4,047 - -53.2°
